This is the latest recevied weather packets stored in our database for station/object DB0HOL-4. If no packets are shown the sender has not sent any weather packets the latest 10 day(s).
| Time | Temp. | Humidity | Pressure | Rain* | Wind** | Luminosity | Snow |
|---|---|---|---|---|---|---|---|
| 1778027197 | 8.89° C | 99% | 1004.7 hPa | 0 mm | - | 0 W/m² | - |
| 1778025397 | 8.89° C | 99% | 1005 hPa | 0 mm | - | 0 W/m² | - |
| 1778023597 | 8.89° C | 99% | 1005 hPa | 0 mm | - | 0 W/m² | - |
| 1778018197 | 10° C | 99% | 1005.4 hPa | 0 mm | - | 0 W/m² | - |
| 1778016397 | 10° C | 99% | 1005.4 hPa | 0 mm | - | 0 W/m² | - |
| 1778014597 | 10° C | 99% | 1005.4 hPa | 0 mm | - | 0 W/m² | - |
| 1778012797 | 10° C | 99% | 1005 hPa | 0 mm | - | 0 W/m² | - |
| 1778010997 | 10° C | 99% | 1005 hPa | 0 mm | - | 0 W/m² | - |
| 1778009197 | 10.56° C | 99% | 1005.4 hPa | 0 mm | - | 0 W/m² | - |
| 1778007397 | 10.56° C | 99% | 1005.4 hPa | 0 mm | - | 4 W/m² | - |
| 1778005598 | 10.56° C | 99% | 1005.4 hPa | 0 mm | - | 56 W/m² | - |
| 1778003797 | 11.11° C | 99% | 1005.4 hPa | 0 mm | - | 82 W/m² | - |
| 1778001997 | 11.11° C | 99% | 1005.7 hPa | 0 mm | - | 152 W/m² | - |
| 1778000197 | 11.11° C | 99% | 1006 hPa | 0 mm | - | 281 W/m² | - |
| 1777998397 | 11.67° C | 99% | 1005.7 hPa | 0 mm | - | 259 W/m² | - |
| 1777996597 | 11.67° C | 98% | 1006 hPa | 0 mm | - | 360 W/m² | - |
| 1777994797 | 12.22° C | 97% | 1006 hPa | 0 mm | - | 511 W/m² | - |
| 1777992997 | 12.22° C | 98% | 1006 hPa | 0 mm | - | 164 W/m² | - |
| 1777991197 | 12.22° C | 99% | 1006.4 hPa | 0 mm | - | 154 W/m² | - |
| 1777989397 | 12.78° C | 98% | 1006.4 hPa | 0 mm | - | 116 W/m² | - |
| 1777987596 | 12.78° C | 97% | 1006.7 hPa | 0 mm | - | 141 W/m² | - |
| 1777985796 | 13.33° C | 96% | 1006.7 hPa | 0 mm | - | 219 W/m² | - |
| 1777983997 | 12.78° C | 96% | 1007.1 hPa | 0 mm | - | 132 W/m² | - |
| 1777982197 | 12.22° C | 97% | 1007.1 hPa | 0 mm | - | 140 W/m² | - |
| 1777980397 | 12.78° C | 98% | 1007.1 hPa | 0 mm | - | 231 W/m² | - |
* Rain latest hour (hover to see other rain measurements)
** Current wind speed in m/s (hover to see current wind gust speed)